Location: ??????
(41.3794°N, 22.5014°E)
Time: 08:29:18
(UTC+00:00)

IRS-1C Rocket - Pass Details

Date: 30 November 2020
Orbit: 800 x 806 km, 99.0° (Epoch: 17 January)

Event Time Altitude Azimuth Distance (km) Brightness Sun altitude
Rises 16:21:25 0° 151° (SSE) 3,307 7.2 -14.7°
Reaches altitude 10° 16:23:47 10° 147° (SSE) 2,381 6.4 -15.1°
Maximum altitude 16:28:54 55° 71° (ENE) 969 4.1 -16.0°
Drops below altitude 10° 16:34:03 10° 355° (N) 2,395 6.5 -16.9°
Sets 16:36:25 0° 351° (N) 3,330 7.3 -17.4°
